Temperature
28 25 25 25 26 27 27 27 26 27 28 27 26 25 26 26 25 25 24 24 23 23 23 23 23 23 22 22 21 21 21 21 20 20 20 20 20 20 20 19 19 19 19 19
25 25 27 28 28 28 27 27 27 27 28 27 25 25 25 25 25 25 24 24 24 23 23 23 23 23 22 22 22 21 21 21 20 20 20 20 20 20 19 19 19 19 19 19
26 27 29 29 28 28 27 27 27 27 27 26 25 25 24 25 26 25 25 24 24 23 23 23 23 22 22 22 22 21 21 21 20 20 20 20 20 20 19 19 19 19 19 19
26 28 29 29 28 28 27 28 29 28 25 24 25 23 24 24 24 24 24 24 24 24 23 23 23 23 22 22 22 22 21 21 21 20 20 20 20 20 20 19 19 19 19 19
26 28 28 28 29 29 28 29 28 27 25 24 24 23 23 23 23 23 24 24 24 24 24 23 23 23 23 22 22 22 21 21 21 20 20 20 20 20 19 19 19 19 19 19
27 29 29 29 30 30 29 27 26 23 22 23 24 23 22 22 23 24 24 25 25 25 24 24 23 23 23 22 22 21 21 21 21 20 20 20 20 20 19 19 19 19 19 19
27 28 29 30 29 28 27 24 23 23 22 22 23 23 22 24 25 25 24 25 25 25 24 24 23 23 23 22 22 21 21 21 21 20 20 20 20 19 19 19 19 19 19 19
26 26 28 29 28 27 27 24 23 23 22 22 23 23 23 24 25 25 25 25 25 25 24 24 23 23 23 22 22 21 21 21 21 20 20 20 20 19 19 19 19 19 19 19
25 26 28 29 29 28 27 25 23 22 23 22 22 23 24 24 24 24 25 24 24 24 24 24 23 23 23 22 22 22 22 21 21 21 20 20 20 19 19 19 19 19 19 19
26 26 27 28 29 28 27 25 22 22 22 22 23 23 22 23 23 23 23 23 24 24 24 23 23 23 23 22 22 22 22 21 21 21 20 20 20 19 19 19 19 19 19 19
25 25 25 26 27 27 27 26 22 20 21 21 22 22 23 22 22 22 22 23 23 24 24 23 23 23 23 22 22 22 21 21 21 20 20 20 19 19 19 19 19 19 18 18
24 22 23 25 26 27 26 25 23 23 22 20 20 21 24 23 23 23 23 23 23 23 24 23 23 23 23 22 22 22 21 21 21 20 20 20 19 19 19 19 19 18 18 18
24 21 22 23 24 25 26 26 24 21 20 20 21 22 23 22 22 23 23 23 24 24 23 23 23 23 22 22 22 21 21 21 21 20 20 19 19 19 19 19 18 18 18 18
24 21 22 23 23 24 25 26 25 22 21 21 21 22 22 22 21 22 23 23 23 23 23 23 23 22 22 22 21 21 21 21 20 20 20 19 19 19 19 18 18 18 18 18
22 22 23 23 24 25 25 26 26 24 22 22 22 22 22 21 22 22 23 23 23 22 22 22 22 22 22 21 21 21 21 20 20 20 19 19 19 19 18 18 18 18 18 18
20 21 22 22 24 25 25 26 26 25 24 23 22 21 21 22 22 22 22 22 22 22 22 22 22 22 22 21 21 21 20 20 20 19 19 19 19 18 18 18 18 18 18 18
19 20 20 21 22 23 23 24 24 24 23 23 22 21 21 21 21 21 22 22 22 22 22 22 22 22 22 21 21 21 20 20 20 19 19 19 18 18 18 18 18 17 17 17
20 19 18 19 22 22 22 23 24 23 23 22 21 21 21 21 22 22 22 22 21 21 21 21 21 21 21 21 21 21 20 20 19 19 19 18 18 18 18 18 17 17 17 17
19 19 18 18 20 21 22 23 23 22 21 21 21 21 21 22 21 21 22 22 22 22 22 21 21 21 21 21 20 20 20 19 19 19 18 18 18 18 18 17 17 17 17 17
18 18 18 18 20 21 21 23 24 22 20 21 21 20 21 21 18 19 21 22 22 22 22 21 21 21 21 20 20 20 19 19 19 19 18 18 18 18 17 17 17 17 16 16
19 18 18 18 19 19 20 22 22 21 19 20 21 20 21 20 19 21 21 21 21 21 21 21 21 21 20 20 20 19 19 19 19 18 18 18 18 17 17 17 17 16 16 16
18 18 17 17 18 19 20 20 20 19 20 20 21 21 21 21 20 20 20 20 20 20 20 20 20 20 20 19 19 19 19 19 18 18 18 18 17 17 17 16 16 16 16 16
17 17 16 17 17 18 20 20 20 21 20 20 20 20 21 20 20 20 20 20 19 19 19 19 19 19 19 19 19 19 18 18 18 18 17 17 17 17 16 16 16 15 15 15
17 17 16 16 17 18 20 20 20 21 20 20 20 20 21 20 20 20 19 19 19 19 19 19 19 19 19 18 18 18 18 18 17 17 17 17 16 16 16 15 15 15 15 15
17 16 15 16 17 18 19 20 20 20 20 20 20 20 20 20 20 19 19 19 19 18 18 18 18 18 18 18 18 18 18 17 17 17 17 16 16 16 15 15 15 15 15 15
16 16 15 15 17 16 18 19 19 19 19 19 19 19 19 20 19 19 19 18 18 18 18 18 17 17 17 17 17 17 17 17 17 16 16 16 15 15 15 15 15 14 14 14
Wind_Speed
2 2 4 8 8 7 4 3 3 3 3 4 4 4 7 8 10 11 10 11 11 11 9 9 10 10 9 8 7 7 6 5 4 3 3 3 2 2 2 1 3 4 5 5
3 5 11 9 7 5 4 3 3 2 1 3 3 2 4 7 10 11 13 13 12 10 9 10 10 10 9 8 8 7 7 6 5 3 3 3 3 2 2 1 1 3 4 4
7 9 8 5 3 3 4 5 5 2 2 3 4 2 1 2 5 7 9 11 12 13 13 12 11 10 10 9 9 9 7 6 6 5 3 3 3 2 1 1 0 1 3 3
6 7 5 4 5 4 4 5 5 3 2 1 2 1 5 3 4 6 7 9 11 12 12 12 12 11 11 11 9 8 8 7 6 5 5 5 4 3 3 2 2 1 2 2
7 6 4 5 7 5 6 3 2 2 3 1 1 3 5 1 4 6 8 10 11 13 14 14 14 13 12 10 9 7 7 6 5 6 6 5 4 3 2 2 2 2 1 1
8 6 5 6 5 4 3 3 6 6 5 1 4 4 5 5 8 7 7 9 10 11 12 12 11 10 9 9 8 7 7 6 5 6 6 6 6 4 4 3 2 1 1 1
6 6 5 3 2 3 3 5 4 5 4 5 3 2 6 6 8 9 9 9 9 10 10 9 10 11 10 10 9 8 8 6 6 6 5 5 6 5 5 4 3 3 1 1
2 6 5 3 5 5 3 8 7 4 4 5 3 2 5 3 6 7 7 8 9 10 10 9 10 11 10 10 10 10 9 7 7 6 5 5 5 4 3 4 3 3 3 3
5 6 5 3 3 6 3 3 8 7 2 0 3 2 4 2 4 6 7 7 8 9 10 9 9 9 10 10 10 11 10 8 7 7 6 5 5 4 4 3 3 3 3 3
6 3 6 5 2 1 6 6 6 5 4 1 3 2 3 2 2 3 5 6 6 7 8 8 7 7 7 8 7 8 8 8 7 7 6 5 5 5 4 3 3 3 2 2
5 4 5 4 0 3 0 3 5 5 6 6 2 5 5 7 6 6 5 6 8 8 9 9 8 7 7 7 7 6 6 6 6 6 5 5 4 4 3 3 3 3 2 2
2 5 2 6 5 3 4 4 6 5 3 5 5 5 4 5 5 6 5 5 6 8 8 9 8 7 7 7 7 6 6 6 6 6 5 5 4 4 3 3 3 2 2 2
4 6 2 6 7 6 2 0 3 6 4 4 5 4 1 3 4 5 6 5 5 6 7 7 6 7 7 7 7 7 6 6 6 6 6 5 4 4 4 4 3 2 2 2
5 5 6 7 6 4 3 3 1 5 4 4 6 5 3 4 5 5 5 5 5 6 7 7 5 6 6 6 7 7 6 5 6 6 6 5 5 5 4 4 3 3 2 2
6 4 1 3 3 1 3 4 2 3 6 7 7 6 7 7 8 7 5 5 6 6 7 7 6 5 5 5 5 6 6 6 6 6 6 5 4 4 3 3 3 2 2 2
5 4 3 6 5 5 4 4 1 2 4 6 6 3 4 5 6 6 6 6 6 6 6 6 6 6 5 5 5 6 6 6 6 6 6 5 5 4 4 4 3 2 2 2
2 4 3 3 6 5 4 4 1 2 3 7 6 6 5 5 7 7 6 6 6 6 5 5 5 6 6 6 6 6 6 6 6 6 5 5 5 5 5 5 3 3 3 2
5 4 3 1 3 2 6 3 4 6 4 4 5 5 7 8 7 5 5 6 5 6 5 3 3 3 4 4 5 5 5 5 5 5 5 5 5 5 5 4 4 4 3 3
6 7 4 3 2 4 5 4 1 4 3 3 3 3 4 6 6 2 2 4 5 5 5 4 4 4 4 4 4 5 5 5 5 5 5 5 5 5 4 5 5 4 4 4
5 6 5 3 2 4 5 6 1 6 2 4 3 4 5 6 4 3 3 4 4 3 3 3 3 3 4 4 4 5 4 4 5 5 5 4 4 5 5 5 5 3 3 4
3 3 4 3 3 4 6 6 4 4 4 2 2 4 4 4 5 4 3 3 3 2 2 3 4 4 4 4 4 4 4 5 6 5 4 4 4 5 5 4 3 3 3 2
4 3 3 4 3 6 4 3 3 4 3 1 3 4 5 4 5 5 4 4 2 2 1 2 2 2 2 3 5 3 5 6 4 4 4 4 4 3 3 3 2 2 3 3
2 5 5 5 5 4 1 3 3 4 3 1 3 3 5 5 5 5 4 4 3 2 2 1 2 2 2 3 4 4 4 3 3 3 3 3 2 2 2 3 3 3 2 3
3 2 3 1 1 0 3 3 3 3 3 1 2 4 5 5 4 4 3 2 2 1 1 2 2 1 2 2 2 4 3 3 3 3 3 2 2 2 1 1 2 3 3 3
3 1 2 1 1 2 2 2 2 3 4 4 3 2 4 5 4 4 2 2 2 1 1 2 2 1 2 2 2 2 2 3 3 2 2 2 2 2 1 1 1 2 3 4
2 3 4 4 5 4 3 1 1 2 2 1 1 0 1 4 4 3 3 2 2 2 2 2 2 1 1 0 1 1 1 4 4 3 2 2 2 2 2 2 1 2 0 1
Wind_Direction
293 92 243 236 215 214 223 222 255 251 158 116 141 158 179 175 171 168 168 167 165 170 165 153 155 158 148 145 147 150 146 146 133 121 121 123 129 132 129 143 158 155 160 161
359 254 240 244 244 216 224 224 246 293 126 117 145 186 188 173 179 176 173 173 170 161 156 161 162 161 158 158 159 159 159 157 158 157 154 151 146 144 140 125 129 159 165 162
216 243 251 257 262 239 258 202 201 197 44 53 92 352 263 211 169 165 166 169 168 167 171 174 169 168 164 168 170 170 171 167 165 156 132 111 86 74 71 98 156 191 172 169
245 249 257 270 263 201 260 227 175 162 109 274 132 214 268 205 183 175 170 171 176 174 173 174 173 173 174 177 175 172 171 168 166 153 145 145 147 161 195 191 191 193 164 162
251 242 240 245 245 212 217 208 134 140 120 21 10 131 270 211 196 205 192 183 181 179 177 179 179 177 177 174 171 171 167 167 162 154 154 150 153 169 169 158 168 193 219 195
251 257 225 225 251 222 183 54 29 44 68 344 249 163 254 220 202 197 197 189 185 178 177 177 173 164 165 165 160 160 161 169 167 159 154 154 156 157 151 159 180 212 249 261
303 296 270 239 285 320 84 86 31 4 7 260 265 160 245 221 191 183 185 182 174 164 166 169 167 165 164 162 164 167 166 173 176 166 165 165 164 165 173 181 190 193 210 238
241 287 271 236 197 205 192 138 155 190 225 273 322 223 263 220 177 166 159 158 161 158 160 169 172 167 167 169 170 172 175 177 176 171 174 172 166 169 176 181 180 191 207 220
188 254 277 252 220 167 166 171 167 145 170 290 297 295 322 26 106 136 143 146 162 163 159 163 165 166 169 174 179 177 177 177 177 176 174 173 173 172 178 182 178 196 210 214
169 241 287 295 28 347 165 155 99 116 151 247 294 266 229 241 169 138 131 145 152 154 153 155 161 165 164 170 174 173 170 175 176 176 179 181 183 184 179 175 187 197 214 217
142 154 306 350 229 231 79 94 112 122 147 156 223 271 226 200 176 157 156 154 154 156 158 162 166 161 155 152 150 161 168 167 168 172 175 175 179 181 172 178 196 199 209 206
135 131 244 271 270 215 159 167 148 155 217 164 160 258 261 188 169 156 158 152 152 161 163 163 160 150 150 155 155 163 173 174 175 171 166 171 173 168 169 186 200 192 205 224
108 109 71 344 343 357 37 34 146 137 126 148 157 241 301 123 126 139 141 142 140 142 150 150 154 158 162 164 167 169 177 183 181 166 162 164 168 174 185 196 202 194 198 216
104 101 153 189 223 261 303 307 152 121 142 181 194 193 187 147 144 141 141 138 127 127 133 135 152 168 171 169 172 166 169 173 173 169 169 175 185 190 193 195 194 194 192 193
81 99 169 223 249 305 288 285 254 169 173 177 196 185 198 184 165 156 151 142 130 133 131 135 144 150 157 161 172 175 167 169 170 166 171 184 185 177 175 182 195 202 205 212
56 96 44 354 341 358 342 328 76 149 147 148 146 197 217 178 140 130 136 135 135 139 143 144 149 147 156 165 176 180 172 170 166 167 176 176 170 172 179 186 193 202 218 242
66 94 76 309 321 16 331 294 195 152 157 153 176 202 172 140 147 157 154 140 136 130 129 146 164 176 179 177 171 172 177 169 169 175 180 183 182 184 196 201 198 219 232 245
138 108 119 123 29 227 248 295 94 95 71 102 133 155 160 160 158 152 152 147 146 136 140 158 173 176 175 169 169 173 171 170 175 179 183 191 190 199 204 197 201 217 227 235
146 138 122 124 179 273 308 332 66 113 38 31 122 138 145 131 101 80 163 152 154 153 157 169 178 175 163 159 169 164 167 173 176 186 194 198 195 198 198 202 211 215 214 228
78 106 118 129 162 221 259 299 300 107 48 329 94 128 140 125 136 215 199 147 138 138 145 148 145 139 153 172 153 151 168 174 188 198 199 194 192 195 203 214 217 213 207 216
42 62 124 160 193 251 276 314 35 108 213 278 103 116 122 142 179 183 139 113 119 130 138 141 149 159 179 176 151 162 184 203 207 200 195 196 201 206 209 212 211 210 210 205
163 144 169 154 179 244 297 36 103 189 215 116 96 113 112 119 108 109 114 116 109 92 101 122 138 156 181 170 158 172 214 216 201 192 195 204 210 218 212 199 214 214 200 191
181 185 177 177 206 233 151 129 157 145 115 114 114 109 114 112 117 122 123 128 131 128 132 130 142 153 178 176 162 184 226 209 184 186 202 211 205 209 196 192 199 202 196 192
314 43 101 92 244 344 74 87 71 78 77 42 106 116 122 125 131 129 136 147 142 127 151 149 142 171 215 204 187 201 211 180 167 185 205 201 189 200 207 193 190 189 189 188
270 59 81 103 216 43 18 91 71 36 46 41 34 74 129 133 142 151 156 178 169 141 142 132 140 173 222 207 212 219 190 157 163 185 199 197 191 183 185 192 209 199 202 198
266 172 163 214 217 176 236 258 74 47 19 24 20 49 181 152 158 163 180 191 170 138 118 100 89 83 313 303 271 281 210 167 167 184 201 205 204 195 183 163 35 7 272 213
Height
1496 1503 1507 1503 1500 1501 1503 1507 1510 1502 1495 1499 1504 1505 1504 1504 1506 1507 1510 1511 1513 1514 1517 1519 1521 1522 1523 1525 1526 1528 1529 1530 1531 1532 1532 1533 1534 1535 1535 1535 1536 1536 1536 1536
1502 1505 1495 1492 1492 1496 1501 1508 1508 1501 1495 1499 1506 1506 1502 1502 1503 1505 1506 1509 1511 1513 1516 1518 1519 1521 1523 1524 1526 1527 1529 1530 1531 1532 1533 1534 1534 1535 1535 1535 1536 1536 1536 1536
1503 1496 1488 1490 1492 1497 1500 1504 1504 1503 1499 1500 1507 1514 1508 1503 1502 1503 1505 1507 1510 1512 1514 1516 1518 1520 1522 1524 1525 1526 1528 1529 1530 1531 1532 1533 1534 1534 1534 1535 1535 1535 1535 1535
1495 1488 1487 1491 1493 1494 1504 1491 1492 1497 1508 1518 1513 1532 1514 1505 1503 1502 1504 1506 1507 1509 1512 1514 1516 1518 1520 1522 1524 1526 1527 1528 1529 1531 1531 1532 1532 1532 1533 1533 1533 1534 1534 1534
1494 1486 1488 1491 1488 1487 1492 1487 1490 1495 1507 1518 1515 1527 1521 1507 1507 1504 1502 1503 1504 1506 1508 1511 1513 1515 1518 1520 1522 1524 1526 1527 1528 1529 1530 1531 1531 1532 1532 1532 1532 1533 1533 1533
1486 1481 1482 1482 1480 1480 1484 1490 1496 1504 1516 1532 1520 1525 1526 1510 1504 1501 1500 1500 1501 1504 1506 1509 1512 1514 1517 1519 1521 1523 1525 1526 1527 1528 1529 1529 1530 1530 1531 1531 1531 1531 1531 1531
1492 1483 1478 1477 1482 1482 1487 1508 1529 1534 1541 1537 1518 1521 1520 1499 1493 1494 1496 1497 1499 1501 1505 1508 1511 1513 1515 1517 1519 1521 1523 1524 1526 1527 1527 1528 1528 1529 1530 1530 1530 1530 1530 1530
1504 1502 1481 1476 1480 1487 1489 1503 1530 1543 1545 1535 1519 1523 1510 1493 1490 1492 1494 1495 1498 1500 1503 1506 1509 1511 1514 1516 1518 1520 1521 1523 1524 1525 1526 1527 1527 1528 1528 1528 1528 1528 1528 1528
1501 1499 1476 1472 1472 1478 1489 1499 1502 1522 1528 1536 1529 1517 1503 1492 1492 1493 1494 1495 1497 1499 1502 1505 1508 1510 1513 1515 1517 1518 1520 1521 1523 1524 1525 1525 1526 1526 1527 1527 1527 1527 1527 1526
1485 1494 1481 1473 1471 1474 1479 1487 1506 1521 1535 1542 1531 1522 1519 1503 1498 1494 1495 1496 1497 1499 1502 1505 1507 1509 1511 1513 1516 1518 1519 1520 1521 1522 1523 1524 1524 1525 1525 1526 1525 1525 1525 1525
1479 1494 1490 1482 1483 1486 1484 1490 1501 1517 1522 1538 1542 1530 1499 1498 1495 1495 1495 1496 1497 1497 1500 1503 1506 1508 1510 1512 1514 1516 1518 1519 1520 1520 1521 1522 1522 1523 1523 1524 1524 1523 1523 1523
1478 1492 1501 1491 1478 1473 1479 1487 1498 1514 1521 1524 1533 1526 1491 1492 1491 1493 1494 1495 1496 1497 1499 1502 1504 1506 1509 1511 1513 1515 1516 1517 1518 1518 1519 1519 1520 1521 1521 1521 1521 1521 1521 1520
1477 1493 1510 1506 1496 1485 1483 1484 1488 1499 1512 1523 1530 1521 1492 1491 1492 1493 1493 1494 1495 1496 1498 1500 1503 1505 1507 1509 1511 1512 1514 1515 1516 1516 1517 1518 1518 1519 1519 1519 1519 1519 1518 1518
1472 1491 1503 1511 1505 1492 1489 1485 1485 1496 1513 1518 1514 1508 1498 1495 1494 1493 1492 1493 1494 1495 1497 1499 1502 1504 1506 1508 1509 1510 1511 1512 1513 1514 1515 1515 1516 1517 1517 1517 1517 1517 1516 1516
1475 1491 1490 1490 1485 1483 1484 1483 1482 1488 1495 1505 1503 1501 1497 1493 1491 1492 1492 1493 1495 1497 1497 1499 1501 1503 1505 1506 1508 1509 1509 1510 1511 1512 1512 1513 1514 1515 1515 1515 1515 1514 1514 1514
1480 1489 1490 1492 1483 1483 1484 1480 1480 1483 1486 1491 1494 1497 1490 1489 1490 1491 1492 1494 1495 1496 1497 1498 1500 1500 1502 1504 1505 1506 1507 1507 1508 1509 1510 1510 1511 1512 1512 1512 1512 1511 1511 1511
1486 1491 1499 1503 1491 1488 1496 1485 1481 1483 1482 1486 1494 1492 1487 1488 1489 1490 1491 1492 1493 1495 1496 1497 1498 1499 1500 1501 1503 1504 1505 1506 1506 1506 1507 1508 1509 1509 1509 1509 1509 1509 1509 1508
1484 1493 1502 1506 1501 1510 1495 1478 1477 1480 1482 1481 1483 1485 1484 1485 1488 1490 1490 1491 1493 1494 1496 1497 1497 1498 1498 1499 1501 1502 1503 1503 1503 1504 1505 1505 1506 1506 1506 1506 1506 1506 1506 1506
1476 1488 1501 1510 1510 1504 1489 1480 1479 1484 1490 1484 1484 1484 1485 1486 1489 1491 1491 1491 1491 1492 1494 1495 1495 1496 1496 1497 1498 1499 1500 1500 1500 1501 1501 1502 1502 1503 1503 1503 1503 1503 1503 1503
1477 1482 1497 1506 1508 1510 1495 1479 1476 1480 1495 1486 1484 1485 1485 1486 1493 1493 1490 1490 1490 1491 1492 1493 1494 1495 1495 1496 1496 1497 1497 1497 1497 1498 1498 1499 1499 1499 1500 1500 1500 1500 1500 1499
1489 1492 1498 1504 1507 1500 1485 1478 1476 1494 1497 1487 1485 1485 1485 1485 1487 1488 1488 1488 1489 1490 1490 1491 1492 1493 1493 1493 1494 1494 1494 1494 1494 1495 1495 1496 1496 1496 1496 1497 1497 1497 1496 1496
1492 1497 1500 1504 1508 1503 1482 1479 1484 1489 1485 1485 1484 1484 1484 1484 1485 1486 1487 1487 1487 1488 1489 1490 1490 1491 1491 1492 1491 1491 1491 1491 1492 1492 1492 1492 1493 1493 1493 1493 1493 1493 1493 1492
1487 1488 1490 1494 1495 1485 1481 1481 1482 1483 1483 1484 1483 1484 1484 1485 1485 1486 1486 1487 1487 1487 1487 1488 1488 1488 1489 1489 1489 1488 1488 1488 1489 1489 1489 1489 1489 1490 1490 1490 1489 1490 1490 1489
1483 1481 1485 1488 1486 1483 1482 1482 1482 1482 1483 1483 1483 1483 1483 1484 1484 1485 1485 1486 1486 1486 1486 1486 1486 1485 1486 1486 1486 1486 1486 1485 1485 1485 1485 1485 1485 1486 1486 1486 1486 1486 1486 1486
1484 1483 1486 1488 1485 1483 1483 1482 1482 1482 1482 1482 1481 1482 1482 1482 1483 1483 1483 1484 1483 1483 1483 1483 1483 1482 1482 1482 1482 1482 1482 1482 1482 1482 1482 1482 1482 1483 1483 1483 1483 1483 1483 1483
1482 1482 1485 1487 1482 1483 1482 1481 1481 1481 1481 1481 1480 1481 1481 1480 1480 1481 1481 1481 1481 1481 1481 1481 1480 1480 1480 1479 1478 1478 1478 1478 1478 1478 1478 1479 1479 1479 1479 1480 1480 1480 1480 1480